Time,TemperatureF,DewpointF,PressureIn,WindDirection,WindDirectionDegrees,WindSpeedMPH,WindSpeedGustMPH,Humidity,HourlyPrecipIn,Conditions,Clouds,dailyrainin,SolarRadiationWatts/m^2,SoftwareType,DateUTC
2013-07-02 00:01:00,78.6,72.3,30.04,ESE,105,1.0,2.0,81,0.00,,,0.00,0.0,meteohub,2013-07-02 04:01:00,
2013-07-02 00:06:00,78.4,72.5,30.04,ESE,105,1.0,2.0,82,0.00,,,0.00,0.0,meteohub,2013-07-02 04:06:00,
2013-07-02 00:11:00,78.3,72.7,30.04,ENE,71,4.0,4.0,83,0.00,,,0.00,0.0,meteohub,2013-07-02 04:11:00,
2013-07-02 00:16:00,78.6,73.4,30.04,East,88,5.0,5.0,84,0.00,,,0.00,0.0,meteohub,2013-07-02 04:16:00,
2013-07-02 00:21:00,79.0,74.1,30.04,East,99,5.0,7.0,85,0.00,,,0.00,0.0,meteohub,2013-07-02 04:21:00,
2013-07-02 00:26:00,79.2,75.0,30.04,East,96,1.0,7.0,87,0.00,,,0.00,0.0,meteohub,2013-07-02 04:26:00,
2013-07-02 00:31:00,79.2,75.0,30.04,East,90,3.0,7.0,87,0.00,,,0.00,0.0,meteohub,2013-07-02 04:31:00,
2013-07-02 00:36:00,79.2,75.4,30.04,ESE,105,2.0,6.0,88,0.00,,,0.00,0.0,meteohub,2013-07-02 04:36:00,
2013-07-02 00:41:00,79.2,75.4,30.03,SE,124,1.0,6.0,88,0.00,,,0.00,0.0,meteohub,2013-07-02 04:41:00,
2013-07-02 00:46:00,79.3,75.7,30.03,SE,124,1.0,6.0,89,0.00,,,0.00,0.0,meteohub,2013-07-02 04:46:00,
2013-07-02 00:51:00,79.3,75.7,30.03,SE,124,0.0,6.0,89,0.00,,,0.00,0.0,meteohub,2013-07-02 04:51:00,
2013-07-02 00:56:00,79.3,75.7,30.03,ESE,115,5.0,5.0,89,0.00,,,0.00,0.0,meteohub,2013-07-02 04:56:00,
2013-07-02 01:02:00,79.5,75.9,30.03,ESE,115,2.0,5.0,89,0.00,,,0.00,0.0,meteohub,2013-07-02 05:02:00,
2013-07-02 01:07:00,79.9,76.3,30.03,SE,144,3.0,5.0,89,0.00,,,0.00,0.0,meteohub,2013-07-02 05:07:00,
2013-07-02 01:12:00,79.9,76.3,30.02,SE,145,0.0,5.0,89,0.00,,,0.00,0.0,meteohub,2013-07-02 05:12:00,
2013-07-02 01:17:00,79.7,76.1,30.02,SE,145,0.0,5.0,89,0.00,,,0.00,0.0,meteohub,2013-07-02 05:17:00,
2013-07-02 01:22:00,79.7,76.1,30.02,ESE,123,2.0,4.0,89,0.00,,,0.00,0.0,meteohub,2013-07-02 05:22:00,
2013-07-02 01:27:00,79.9,76.3,30.02,SE,128,2.0,3.0,89,0.00,,,0.00,0.0,meteohub,2013-07-02 05:27:00,
2013-07-02 01:32:00,80.1,76.5,30.02,SSE,150,1.0,4.0,89,0.00,,,0.00,0.0,meteohub,2013-07-02 05:32:00,
2013-07-02 01:37:00,80.1,76.8,30.02,SE,126,2.0,4.0,90,0.00,,,0.00,0.0,meteohub,2013-07-02 05:37:00,
2013-07-02 01:42:00,80.2,77.0,30.02,SE,125,3.0,4.0,90,0.00,,,0.00,0.0,meteohub,2013-07-02 05:42:00,
2013-07-02 01:47:00,80.2,77.0,30.02,ESE,121,2.0,5.0,90,0.00,,,0.00,0.0,meteohub,2013-07-02 05:47:00,
2013-07-02 01:52:00,80.2,77.0,30.01,SE,134,2.0,5.0,90,0.00,,,0.00,0.0,meteohub,2013-07-02 05:52:00,
2013-07-02 01:57:00,80.2,77.0,30.01,SE,134,0.0,5.0,90,0.00,,,0.00,0.0,meteohub,2013-07-02 05:57:00,
2013-07-02 02:02:00,80.2,77.0,30.01,SE,134,1.0,5.0,90,0.00,,,0.00,0.0,meteohub,2013-07-02 06:02:00,
2013-07-02 02:07:00,79.9,76.6,30.01,SE,134,2.0,5.0,90,0.00,,,0.00,0.0,meteohub,2013-07-02 06:07:00,
2013-07-02 02:12:00,79.9,76.6,30.00,ESE,115,1.0,4.0,90,0.00,,,0.00,0.0,meteohub,2013-07-02 06:12:00,
2013-07-02 02:17:00,80.1,76.8,30.00,SE,130,1.0,4.0,90,0.00,,,0.00,0.0,meteohub,2013-07-02 06:17:00,
2013-07-02 02:22:00,80.1,76.8,30.00,ESE,113,3.0,5.0,90,0.00,,,0.00,0.0,meteohub,2013-07-02 06:22:00,
2013-07-02 02:27:00,80.2,76.6,30.00,SE,133,4.0,5.0,89,0.00,,,0.00,0.0,meteohub,2013-07-02 06:27:00,
2013-07-02 02:32:00,80.4,76.8,30.00,SE,125,3.0,5.0,89,0.00,,,0.00,0.0,meteohub,2013-07-02 06:32:00,
2013-07-02 02:37:00,80.4,76.8,30.00,SE,124,2.0,5.0,89,0.00,,,0.00,0.0,meteohub,2013-07-02 06:37:00,
2013-07-02 02:42:00,80.4,76.8,30.00,ESE,117,3.0,5.0,89,0.00,,,0.00,0.0,meteohub,2013-07-02 06:42:00,
2013-07-02 02:47:00,80.4,76.8,29.99,ESE,120,4.0,5.0,89,0.00,,,0.00,0.0,meteohub,2013-07-02 06:47:00,
2013-07-02 02:52:00,80.4,76.8,29.99,SE,137,2.0,5.0,89,0.00,,,0.00,0.0,meteohub,2013-07-02 06:52:00,
2013-07-02 02:57:00,80.4,76.8,29.99,SE,136,3.0,5.0,89,0.00,,,0.00,0.0,meteohub,2013-07-02 06:57:00,
2013-07-02 03:02:00,80.4,76.8,29.99,ESE,118,3.0,5.0,89,0.00,,,0.00,0.0,meteohub,2013-07-02 07:02:00,
2013-07-02 03:07:00,80.4,76.8,29.99,ESE,115,2.0,4.0,89,0.00,,,0.00,0.0,meteohub,2013-07-02 07:07:00,
2013-07-02 03:12:00,80.4,76.8,29.99,ESE,115,2.0,4.0,89,0.00,,,0.00,0.0,meteohub,2013-07-02 07:12:00,
2013-07-02 03:17:00,80.6,77.0,29.99,ESE,115,3.0,5.0,89,0.00,,,0.00,0.0,meteohub,2013-07-02 07:17:00,
2013-07-02 03:22:00,80.6,77.0,29.99,ESE,118,3.0,5.0,89,0.00,,,0.00,0.0,meteohub,2013-07-02 07:22:00,
2013-07-02 03:27:00,80.6,77.4,29.99,SE,143,4.0,5.0,90,0.00,,,0.00,0.0,meteohub,2013-07-02 07:27:00,
2013-07-02 03:32:00,80.4,77.5,29.99,SSE,151,2.0,5.0,91,0.00,,,0.00,0.0,meteohub,2013-07-02 07:32:00,
2013-07-02 03:37:00,80.2,77.4,29.99,SSE,159,2.0,6.0,91,0.00,,,0.00,0.0,meteohub,2013-07-02 07:37:00,
2013-07-02 03:42:00,80.1,77.5,29.99,SSE,163,4.0,6.0,92,0.00,,,0.00,0.0,meteohub,2013-07-02 07:42:00,
2013-07-02 03:47:00,79.9,77.4,29.99,SSE,158,2.0,6.0,92,0.00,,,0.00,0.0,meteohub,2013-07-02 07:47:00,
2013-07-02 03:52:00,79.9,77.4,29.99,SSE,158,3.0,4.0,92,0.00,,,0.00,0.0,meteohub,2013-07-02 07:52:00,
2013-07-02 03:57:00,79.9,77.7,29.99,SSE,158,1.0,4.0,93,0.00,,,0.00,0.0,meteohub,2013-07-02 07:57:00,
2013-07-02 04:02:00,79.9,77.7,29.99,SSE,157,1.0,4.0,93,0.00,,,0.00,0.0,meteohub,2013-07-02 08:02:00,
2013-07-02 04:07:00,79.7,77.5,29.99,SSE,158,1.0,4.0,93,0.00,,,0.00,0.0,meteohub,2013-07-02 08:07:00,
2013-07-02 04:12:00,79.5,77.4,29.99,SSE,158,2.0,3.0,93,0.00,,,0.00,0.0,meteohub,2013-07-02 08:12:00,
2013-07-02 04:17:00,79.5,77.4,29.99,SSE,158,2.0,3.0,93,0.00,,,0.00,0.0,meteohub,2013-07-02 08:17:00,
2013-07-02 04:22:00,79.5,77.4,29.99,SSE,157,1.0,3.0,93,0.00,,,0.00,0.0,meteohub,2013-07-02 08:22:00,
2013-07-02 04:27:00,79.5,77.4,29.98,SSE,157,2.0,4.0,93,0.00,,,0.00,0.0,meteohub,2013-07-02 08:27:00,
2013-07-02 04:32:00,79.5,77.4,29.98,SSE,157,3.0,4.0,93,0.00,,,0.00,0.0,meteohub,2013-07-02 08:32:00,
2013-07-02 04:37:00,79.3,77.2,29.98,SSE,157,2.0,4.0,93,0.00,,,0.00,0.0,meteohub,2013-07-02 08:37:00,
2013-07-02 04:42:00,79.3,77.2,29.98,SSE,157,3.0,4.0,93,0.00,,,0.00,0.0,meteohub,2013-07-02 08:42:00,
2013-07-02 04:47:00,79.3,77.5,29.98,SSE,157,1.0,4.0,94,0.00,,,0.00,0.0,meteohub,2013-07-02 08:47:00,
2013-07-02 04:51:00,79.3,77.2,29.98,SSE,157,1.0,4.0,93,0.00,,,0.00,0.0,meteohub,2013-07-02 08:51:00,
2013-07-02 04:56:00,79.5,77.4,29.98,SSE,149,2.0,4.0,93,0.00,,,0.00,0.0,meteohub,2013-07-02 08:56:00,
2013-07-02 05:01:00,79.5,77.4,29.98,SSE,149,2.0,4.0,93,0.00,,,0.00,0.0,meteohub,2013-07-02 09:01:00,
2013-07-02 05:06:00,79.5,77.4,29.98,SE,134,3.0,4.0,93,0.00,,,0.00,0.0,meteohub,2013-07-02 09:06:00,
2013-07-02 05:11:00,79.7,77.5,29.98,SE,128,4.0,4.0,93,0.00,,,0.00,0.0,meteohub,2013-07-02 09:11:00,
2013-07-02 05:17:00,79.9,77.7,29.98,SE,128,3.0,5.0,93,0.00,,,0.00,0.0,meteohub,2013-07-02 09:17:00,
2013-07-02 05:22:00,79.9,77.7,29.98,SE,125,6.0,6.0,93,0.00,,,0.00,0.0,meteohub,2013-07-02 09:22:00,
2013-07-02 05:27:00,80.2,77.7,29.99,SE,127,4.0,8.0,92,0.00,,,0.00,0.0,meteohub,2013-07-02 09:27:00,
2013-07-02 05:32:00,80.2,77.7,29.99,SE,128,6.0,8.0,92,0.00,,,0.00,0.0,meteohub,2013-07-02 09:32:00,
2013-07-02 05:37:00,80.4,77.5,29.99,SE,137,2.0,8.0,91,0.00,,,0.00,0.0,meteohub,2013-07-02 09:37:00,
2013-07-02 05:42:00,80.6,77.7,29.99,SSE,150,6.0,8.0,91,0.00,,,0.00,0.0,meteohub,2013-07-02 09:42:00,
2013-07-02 05:47:00,80.8,77.5,29.99,ESE,123,5.0,8.0,90,0.00,,,0.00,0.0,meteohub,2013-07-02 09:47:00,
2013-07-02 05:52:00,81.0,77.4,29.99,SSE,153,3.0,7.0,89,0.00,,,0.00,0.0,meteohub,2013-07-02 09:52:00,
2013-07-02 05:57:00,81.1,77.5,29.99,SE,128,4.0,9.0,89,0.00,,,0.00,0.0,meteohub,2013-07-02 09:57:00,
2013-07-02 06:02:00,81.1,77.5,30.00,SE,131,4.0,9.0,89,0.00,,,0.00,0.0,meteohub,2013-07-02 10:02:00,
2013-07-02 06:07:00,81.1,77.2,30.00,SE,134,4.0,9.0,88,0.00,,,0.00,0.0,meteohub,2013-07-02 10:07:00,
2013-07-02 06:12:00,81.1,77.2,30.00,SE,133,4.0,10.0,88,0.00,,,0.00,0.0,meteohub,2013-07-02 10:12:00,
2013-07-02 06:17:00,81.3,77.4,30.00,ESE,117,8.0,10.0,88,0.00,,,0.00,0.0,meteohub,2013-07-02 10:17:00,
2013-07-02 06:22:00,81.3,77.4,30.00,SE,127,7.0,10.0,88,0.00,,,0.00,0.0,meteohub,2013-07-02 10:22:00,
2013-07-02 06:27:00,81.3,77.0,30.00,SE,125,5.0,11.0,87,0.00,,,0.00,0.0,meteohub,2013-07-02 10:27:00,
2013-07-02 06:32:00,81.5,77.2,30.00,SE,139,8.0,11.0,87,0.00,,,0.00,0.0,meteohub,2013-07-02 10:32:00,
2013-07-02 06:37:00,81.5,77.2,30.01,ESE,107,10.0,11.0,87,0.00,,,0.00,0.0,meteohub,2013-07-02 10:37:00,
2013-07-02 06:42:00,81.7,77.4,30.01,ESE,121,4.0,11.0,87,0.00,,,0.00,0.0,meteohub,2013-07-02 10:42:00,
2013-07-02 06:47:00,81.7,77.0,30.01,SE,128,3.0,11.0,86,0.00,,,0.00,9.0,meteohub,2013-07-02 10:47:00,
2013-07-02 06:52:00,81.7,77.0,30.01,SE,132,5.0,10.0,86,0.00,,,0.00,12.0,meteohub,2013-07-02 10:52:00,
2013-07-02 06:57:00,81.7,77.4,30.01,SE,145,4.0,10.0,87,0.00,,,0.00,19.0,meteohub,2013-07-02 10:57:00,
2013-07-02 07:02:00,81.7,77.4,30.01,SE,142,5.0,10.0,87,0.00,,,0.00,23.0,meteohub,2013-07-02 11:02:00,
2013-07-02 07:07:00,81.9,77.2,30.01,SE,143,5.0,9.0,86,0.00,,,0.00,26.0,meteohub,2013-07-02 11:07:00,
2013-07-02 07:12:00,81.9,77.2,30.02,SE,133,9.0,10.0,86,0.00,,,0.00,28.0,meteohub,2013-07-02 11:12:00,
2013-07-02 07:17:00,82.0,77.4,30.02,SE,144,5.0,10.0,86,0.00,,,0.00,39.0,meteohub,2013-07-02 11:17:00,
2013-07-02 07:22:00,82.0,77.4,30.02,SE,142,4.0,10.0,86,0.00,,,0.00,56.0,meteohub,2013-07-02 11:22:00,
2013-07-02 07:27:00,82.0,77.4,30.02,SSE,157,3.0,9.0,86,0.00,,,0.00,69.0,meteohub,2013-07-02 11:27:00,
2013-07-02 07:32:00,82.2,77.5,30.02,ESE,122,3.0,9.0,86,0.00,,,0.00,84.0,meteohub,2013-07-02 11:32:00,
2013-07-02 07:37:00,82.6,77.9,30.02,SE,141,7.0,9.0,86,0.00,,,0.00,113.0,meteohub,2013-07-02 11:37:00,
2013-07-02 07:42:00,82.8,77.7,30.02,SE,128,7.0,10.0,85,0.00,,,0.00,130.0,meteohub,2013-07-02 11:42:00,
2013-07-02 07:47:00,82.9,77.5,30.02,SE,139,3.0,10.0,84,0.00,,,0.00,121.0,meteohub,2013-07-02 11:47:00,
2013-07-02 07:52:00,83.1,77.7,30.03,SE,144,6.0,10.0,84,0.00,,,0.00,230.0,meteohub,2013-07-02 11:52:00,
2013-07-02 07:57:00,83.3,77.9,30.03,SE,128,5.0,11.0,84,0.00,,,0.00,142.0,meteohub,2013-07-02 11:57:00,
2013-07-02 08:02:00,83.5,78.1,30.03,SE,144,4.0,11.0,84,0.00,,,0.00,156.0,meteohub,2013-07-02 12:02:00,
2013-07-02 08:07:00,83.7,77.9,30.03,SE,138,5.0,11.0,83,0.00,,,0.00,236.0,meteohub,2013-07-02 12:07:00,
2013-07-02 08:12:00,83.7,77.9,30.03,SE,145,7.0,10.0,83,0.00,,,0.00,193.0,meteohub,2013-07-02 12:12:00,
2013-07-02 08:17:00,83.8,77.7,30.04,SE,130,4.0,10.0,82,0.00,,,0.00,380.0,meteohub,2013-07-02 12:17:00,
2013-07-02 08:22:00,84.4,77.9,30.04,South,171,8.0,11.0,81,0.00,,,0.00,253.0,meteohub,2013-07-02 12:22:00,
2013-07-02 08:27:00,84.4,77.9,30.04,SE,146,7.0,14.0,81,0.00,,,0.00,253.0,meteohub,2013-07-02 12:27:00,
2013-07-02 08:32:00,84.7,78.6,30.04,ESE,119,10.0,14.0,82,0.00,,,0.00,436.0,meteohub,2013-07-02 12:32:00,
2013-07-02 08:37:00,84.7,78.3,30.04,ESE,123,8.0,16.0,81,0.00,,,0.00,267.0,meteohub,2013-07-02 12:37:00,
2013-07-02 08:42:00,84.7,77.9,30.04,ESE,119,7.0,16.0,80,0.00,,,0.00,316.0,meteohub,2013-07-02 12:42:00,
2013-07-02 08:47:00,84.7,78.3,30.04,SE,145,12.0,16.0,81,0.00,,,0.00,190.0,meteohub,2013-07-02 12:47:00,
2013-07-02 08:52:00,84.6,78.1,30.05,SSE,168,2.0,16.0,81,0.00,,,0.00,181.0,meteohub,2013-07-02 12:52:00,
2013-07-02 08:57:00,84.4,77.9,30.04,ESE,119,7.0,13.0,81,0.00,,,0.00,192.0,meteohub,2013-07-02 12:57:00,
2013-07-02 09:02:00,84.6,78.1,30.05,SSE,166,11.0,13.0,81,0.00,,,0.00,181.0,meteohub,2013-07-02 13:02:00,
2013-07-02 09:07:00,84.2,77.4,30.05,SE,139,13.0,16.0,80,0.00,,,0.00,171.0,meteohub,2013-07-02 13:07:00,
2013-07-02 09:12:00,84.4,77.9,30.05,SE,138,10.0,16.0,81,0.00,,,0.00,162.0,meteohub,2013-07-02 13:12:00,
2013-07-02 09:17:00,84.6,77.7,30.05,SE,130,9.0,16.0,80,0.00,,,0.00,225.0,meteohub,2013-07-02 13:17:00,
2013-07-02 09:22:00,84.4,77.5,30.05,SE,135,11.0,16.0,80,0.00,,,0.00,218.0,meteohub,2013-07-02 13:22:00,
2013-07-02 09:27:00,84.6,78.1,30.05,SE,140,6.0,16.0,81,0.00,,,0.00,206.0,meteohub,2013-07-02 13:27:00,
2013-07-02 09:32:00,84.6,78.1,30.05,SE,140,5.0,16.0,81,0.00,,,0.00,237.0,meteohub,2013-07-02 13:32:00,
2013-07-02 09:37:00,84.6,77.7,30.05,SE,129,6.0,15.0,80,0.00,,,0.00,239.0,meteohub,2013-07-02 13:37:00,
2013-07-02 09:42:00,84.7,77.9,30.05,SE,134,7.0,15.0,80,0.00,,,0.00,204.0,meteohub,2013-07-02 13:42:00,
2013-07-02 09:47:00,84.6,77.7,30.05,ESE,119,10.0,13.0,80,0.00,,,0.00,163.0,meteohub,2013-07-02 13:47:00,
2013-07-02 09:52:00,84.4,77.5,30.05,SE,143,15.0,17.0,80,0.00,,,0.00,165.0,meteohub,2013-07-02 13:52:00,
2013-07-02 09:57:00,84.4,77.5,30.05,SSE,151,8.0,17.0,80,0.00,,,0.00,195.0,meteohub,2013-07-02 13:57:00,
2013-07-02 10:02:00,84.6,77.7,30.05,SE,138,9.0,17.0,80,0.00,,,0.00,229.0,meteohub,2013-07-02 14:02:00,
2013-07-02 10:07:00,84.7,77.9,30.06,SSE,152,7.0,16.0,80,0.00,,,0.00,179.0,meteohub,2013-07-02 14:07:00,
2013-07-02 10:12:00,84.7,78.3,30.06,SE,131,6.0,15.0,81,0.00,,,0.00,218.0,meteohub,2013-07-02 14:12:00,
2013-07-02 10:17:00,84.6,77.7,30.06,SE,142,9.0,14.0,80,0.00,,,0.00,204.0,meteohub,2013-07-02 14:17:00,
2013-07-02 10:22:00,84.7,78.3,30.06,South,170,6.0,18.0,81,0.00,,,0.00,313.0,meteohub,2013-07-02 14:22:00,
2013-07-02 10:27:00,84.9,77.7,30.06,SSE,162,11.0,18.0,79,0.00,,,0.00,216.0,meteohub,2013-07-02 14:27:00,
2013-07-02 10:32:00,84.7,77.5,30.06,SSE,155,10.0,18.0,79,0.00,,,0.00,403.0,meteohub,2013-07-02 14:32:00,
2013-07-02 10:37:00,85.6,77.9,30.06,SE,130,9.0,16.0,78,0.00,,,0.00,362.0,meteohub,2013-07-02 14:37:00,
2013-07-02 10:42:00,85.6,78.4,30.06,SSE,163,8.0,16.0,79,0.00,,,0.00,629.0,meteohub,2013-07-02 14:42:00,
2013-07-02 10:47:00,85.8,77.7,30.06,SE,146,6.0,16.0,77,0.00,,,0.00,573.0,meteohub,2013-07-02 14:47:00,
2013-07-02 10:52:00,85.6,77.5,30.05,SE,130,5.0,16.0,77,0.00,,,0.00,265.0,meteohub,2013-07-02 14:52:00,
2013-07-02 10:57:00,86.4,77.9,30.05,SE,136,9.0,17.0,76,0.00,,,0.00,329.0,meteohub,2013-07-02 14:57:00,
2013-07-02 11:02:00,85.8,77.7,30.05,SE,140,8.0,17.0,77,0.00,,,0.00,209.0,meteohub,2013-07-02 15:02:00,
2013-07-02 11:08:00,86.0,77.9,30.05,SSE,150,7.0,18.0,77,0.00,,,0.00,271.0,meteohub,2013-07-02 15:08:00,
2013-07-02 11:13:00,86.5,78.4,30.05,SSE,152,10.0,18.0,77,0.00,,,0.00,860.0,meteohub,2013-07-02 15:13:00,
2013-07-02 11:18:00,87.1,78.3,30.05,SSE,151,10.0,16.0,75,0.00,,,0.00,860.0,meteohub,2013-07-02 15:18:00,
2013-07-02 11:23:00,86.2,77.4,30.05,SSE,154,8.0,16.0,75,0.00,,,0.00,232.0,meteohub,2013-07-02 15:23:00,
2013-07-02 11:28:00,86.2,77.4,30.05,SSE,167,9.0,15.0,75,0.00,,,0.00,241.0,meteohub,2013-07-02 15:28:00,
2013-07-02 11:33:00,86.2,77.7,30.05,SE,133,10.0,15.0,76,0.00,,,0.00,279.0,meteohub,2013-07-02 15:33:00,
2013-07-02 11:38:00,86.9,77.5,30.06,SE,138,10.0,15.0,74,0.00,,,0.00,928.0,meteohub,2013-07-02 15:38:00,
2013-07-02 11:43:00,86.9,77.2,30.06,ESE,108,13.0,16.0,73,0.00,,,0.00,772.0,meteohub,2013-07-02 15:43:00,
2013-07-02 11:48:00,87.1,77.4,30.06,SSE,148,7.0,17.0,73,0.00,,,0.00,378.0,meteohub,2013-07-02 15:48:00,
2013-07-02 11:53:00,87.4,77.4,30.06,SSE,157,7.0,17.0,72,0.00,,,0.00,1005.0,meteohub,2013-07-02 15:53:00,
2013-07-02 11:58:00,88.2,78.4,30.06,SSE,164,8.0,17.0,73,0.00,,,0.00,1009.0,meteohub,2013-07-02 15:58:00,
2013-07-02 12:03:00,88.0,77.4,30.06,ESE,114,10.0,17.0,71,0.00,,,0.00,1056.0,meteohub,2013-07-02 16:03:00,
2013-07-02 12:08:00,87.8,77.7,30.06,ESE,123,8.0,17.0,72,0.00,,,0.00,719.0,meteohub,2013-07-02 16:08:00,
2013-07-02 12:13:00,88.0,77.9,30.06,ESE,121,9.0,19.0,72,0.00,,,0.00,1083.0,meteohub,2013-07-02 16:13:00,
2013-07-02 12:18:00,86.7,76.6,30.06,SE,138,5.0,19.0,72,0.00,,,0.00,253.0,meteohub,2013-07-02 16:18:00,
2013-07-02 12:23:00,86.2,77.4,30.06,SE,132,7.0,19.0,75,0.00,,,0.00,211.0,meteohub,2013-07-02 16:23:00,
2013-07-02 12:28:00,85.8,77.0,30.06,SE,142,12.0,19.0,75,0.00,,,0.00,174.0,meteohub,2013-07-02 16:28:00,
2013-07-02 12:33:00,85.6,76.5,30.06,SE,144,10.0,19.0,74,0.00,,,0.00,151.0,meteohub,2013-07-02 16:33:00,
2013-07-02 12:38:00,85.6,77.2,30.06,SSE,157,11.0,18.0,76,0.00,,,0.00,125.0,meteohub,2013-07-02 16:38:00,
2013-07-02 12:43:00,85.3,76.1,30.06,SE,144,12.0,18.0,74,0.00,,,0.00,107.0,meteohub,2013-07-02 16:43:00,
2013-07-02 12:48:00,85.3,76.5,30.06,ESE,121,7.0,18.0,75,0.00,,,0.00,107.0,meteohub,2013-07-02 16:48:00,
2013-07-02 12:53:00,84.9,76.5,30.07,SE,143,4.0,18.0,76,0.00,,,0.00,125.0,meteohub,2013-07-02 16:53:00,
2013-07-02 12:58:00,84.9,76.5,30.06,SE,142,9.0,18.0,76,0.00,,,0.00,139.0,meteohub,2013-07-02 16:58:00,
2013-07-02 13:03:00,84.9,76.8,30.06,ESE,109,7.0,18.0,77,0.00,,,0.00,149.0,meteohub,2013-07-02 17:03:00,
2013-07-02 13:08:00,84.9,76.5,30.06,SE,139,10.0,18.0,76,0.00,,,0.00,165.0,meteohub,2013-07-02 17:08:00,
2013-07-02 13:13:00,84.9,76.8,30.06,SE,136,9.0,14.0,77,0.00,,,0.00,181.0,meteohub,2013-07-02 17:13:00,
2013-07-02 13:18:00,84.9,77.4,30.06,SE,131,9.0,15.0,78,0.00,,,0.00,206.0,meteohub,2013-07-02 17:18:00,
2013-07-02 13:23:00,84.9,77.4,30.06,SSE,157,5.0,15.0,78,0.00,,,0.00,234.0,meteohub,2013-07-02 17:23:00,
2013-07-02 13:28:00,85.3,77.2,30.06,SE,139,9.0,15.0,77,0.00,,,0.00,287.0,meteohub,2013-07-02 17:28:00,
2013-07-02 13:33:00,85.6,77.5,30.06,SE,130,10.0,15.0,77,0.00,,,0.00,332.0,meteohub,2013-07-02 17:33:00,
2013-07-02 13:38:00,85.8,77.4,30.06,SE,128,7.0,15.0,76,0.00,,,0.00,381.0,meteohub,2013-07-02 17:38:00,
2013-07-02 13:43:00,86.2,77.4,30.06,SE,143,14.0,16.0,75,0.00,,,0.00,378.0,meteohub,2013-07-02 17:43:00,
2013-07-02 13:48:00,86.4,77.9,30.06,SSE,149,9.0,16.0,76,0.00,,,0.00,550.0,meteohub,2013-07-02 17:48:00,
2013-07-02 13:53:00,86.5,78.1,30.05,SSE,157,11.0,16.0,76,0.00,,,0.00,501.0,meteohub,2013-07-02 17:53:00,
2013-07-02 13:58:00,86.7,77.9,30.05,SE,133,12.0,16.0,75,0.00,,,0.00,309.0,meteohub,2013-07-02 17:58:00,
2013-07-02 14:03:00,86.2,77.4,30.04,ESE,110,10.0,16.0,75,0.00,,,0.00,744.0,meteohub,2013-07-02 18:03:00,
2013-07-02 14:09:00,86.4,77.0,30.04,SE,135,8.0,16.0,74,0.00,,,0.00,348.0,meteohub,2013-07-02 18:09:00,
2013-07-02 14:14:00,86.2,77.0,30.04,SE,142,14.0,16.0,74,0.00,,,0.00,424.0,meteohub,2013-07-02 18:14:00,
2013-07-02 14:19:00,86.4,77.0,30.04,South,177,8.0,16.0,74,0.00,,,0.00,464.0,meteohub,2013-07-02 18:19:00,
2013-07-02 14:24:00,86.9,76.8,30.05,SE,126,9.0,16.0,72,0.00,,,0.00,489.0,meteohub,2013-07-02 18:24:00,
2013-07-02 14:29:00,86.7,76.6,30.05,SSE,159,8.0,16.0,72,0.00,,,0.00,584.0,meteohub,2013-07-02 18:29:00,
2013-07-02 14:34:00,86.5,77.2,30.05,SE,134,6.0,15.0,74,0.00,,,0.00,403.0,meteohub,2013-07-02 18:34:00,
2013-07-02 14:39:00,85.8,76.6,30.05,SSE,157,9.0,18.0,74,0.00,,,0.00,425.0,meteohub,2013-07-02 18:39:00,
2013-07-02 14:44:00,86.2,77.4,30.05,SSE,163,8.0,18.0,75,0.00,,,0.00,429.0,meteohub,2013-07-02 18:44:00,
2013-07-02 14:49:00,85.8,76.6,30.05,ESE,121,12.0,18.0,74,0.00,,,0.00,464.0,meteohub,2013-07-02 18:49:00,
2013-07-02 14:54:00,86.2,76.1,30.05,SE,144,16.0,18.0,72,0.00,,,0.00,424.0,meteohub,2013-07-02 18:54:00,
2013-07-02 14:59:00,86.2,76.1,30.06,SSE,147,12.0,18.0,72,0.00,,,0.00,404.0,meteohub,2013-07-02 18:59:00,
2013-07-02 15:04:00,86.2,76.1,30.05,SSE,163,9.0,18.0,72,0.00,,,0.00,403.0,meteohub,2013-07-02 19:04:00,
2013-07-02 15:09:00,86.5,76.8,30.05,ESE,120,11.0,18.0,73,0.00,,,0.00,383.0,meteohub,2013-07-02 19:09:00,
2013-07-02 15:14:00,86.2,76.1,30.05,SE,141,7.0,15.0,72,0.00,,,0.00,346.0,meteohub,2013-07-02 19:14:00,
2013-07-02 15:19:00,85.8,76.1,30.05,SSE,165,7.0,15.0,73,0.00,,,0.00,367.0,meteohub,2013-07-02 19:19:00,
2013-07-02 15:24:00,86.2,77.0,30.04,SSE,148,8.0,15.0,74,0.00,,,0.00,489.0,meteohub,2013-07-02 19:24:00,
2013-07-02 15:29:00,86.5,76.5,30.04,SE,144,8.0,14.0,72,0.00,,,0.00,596.0,meteohub,2013-07-02 19:29:00,
2013-07-02 15:34:00,87.3,76.6,30.04,ESE,121,10.0,13.0,71,0.00,,,0.00,638.0,meteohub,2013-07-02 19:34:00,
2013-07-02 15:39:00,87.4,76.5,30.04,SE,141,7.0,13.0,70,0.00,,,0.00,768.0,meteohub,2013-07-02 19:39:00,
2013-07-02 15:44:00,87.8,76.3,30.04,SE,140,9.0,13.0,69,0.00,,,0.00,394.0,meteohub,2013-07-02 19:44:00,
2013-07-02 15:49:00,86.4,75.9,30.04,SE,138,4.0,13.0,71,0.00,,,0.00,316.0,meteohub,2013-07-02 19:49:00,
2013-07-02 15:54:00,86.4,76.3,30.04,SE,144,8.0,15.0,72,0.00,,,0.00,316.0,meteohub,2013-07-02 19:54:00,
2013-07-02 15:59:00,86.5,76.8,30.05,SE,133,11.0,15.0,73,0.00,,,0.00,329.0,meteohub,2013-07-02 19:59:00,
2013-07-02 16:04:00,86.0,75.9,30.04,SE,127,8.0,13.0,72,0.00,,,0.00,290.0,meteohub,2013-07-02 20:04:00,
2013-07-02 16:09:00,85.8,76.6,30.04,ESE,119,9.0,13.0,74,0.00,,,0.00,265.0,meteohub,2013-07-02 20:09:00,
2013-07-02 16:14:00,85.8,77.0,30.04,ESE,109,7.0,13.0,75,0.00,,,0.00,239.0,meteohub,2013-07-02 20:14:00,
2013-07-02 16:19:00,85.8,77.4,30.04,East,96,8.0,13.0,76,0.00,,,0.00,218.0,meteohub,2013-07-02 20:19:00,
2013-07-02 16:24:00,85.5,76.6,30.03,SE,126,5.0,11.0,75,0.00,,,0.00,225.0,meteohub,2013-07-02 20:24:00,
2013-07-02 16:29:00,85.6,76.8,30.03,ESE,110,7.0,11.0,75,0.00,,,0.00,264.0,meteohub,2013-07-02 20:29:00,
2013-07-02 16:34:00,85.6,76.8,30.03,ESE,104,11.0,11.0,75,0.00,,,0.00,251.0,meteohub,2013-07-02 20:34:00,
2013-07-02 16:39:00,85.8,77.0,30.03,East,98,8.0,12.0,75,0.00,,,0.00,339.0,meteohub,2013-07-02 20:39:00,
2013-07-02 16:44:00,86.2,77.4,30.02,East,101,8.0,12.0,75,0.00,,,0.00,724.0,meteohub,2013-07-02 20:44:00,
2013-07-02 16:49:00,87.6,77.9,30.02,SE,133,7.0,14.0,73,0.00,,,0.00,758.0,meteohub,2013-07-02 20:49:00,
2013-07-02 16:54:00,87.1,76.5,30.02,SE,128,7.0,16.0,71,0.00,,,0.00,679.0,meteohub,2013-07-02 20:54:00,
2013-07-02 16:59:00,86.7,77.9,30.02,ESE,104,9.0,16.0,75,0.00,,,0.00,679.0,meteohub,2013-07-02 20:59:00,
2013-07-02 17:04:00,87.3,77.2,30.02,South,182,3.0,16.0,72,0.00,,,0.00,297.0,meteohub,2013-07-02 21:04:00,
2013-07-02 17:09:00,86.4,76.6,30.02,SSE,148,8.0,13.0,73,0.00,,,0.00,257.0,meteohub,2013-07-02 21:09:00,
2013-07-02 17:14:00,86.4,76.3,30.02,SSE,147,4.0,13.0,72,0.00,,,0.00,162.0,meteohub,2013-07-02 21:14:00,
2013-07-02 17:19:00,85.6,76.8,30.02,SE,136,5.0,13.0,75,0.00,,,0.00,135.0,meteohub,2013-07-02 21:19:00,
2013-07-02 17:24:00,85.5,76.6,30.02,SE,131,4.0,13.0,75,0.00,,,0.00,142.0,meteohub,2013-07-02 21:24:00,
2013-07-02 17:29:00,85.5,77.0,30.02,SE,142,2.0,13.0,76,0.00,,,0.00,144.0,meteohub,2013-07-02 21:29:00,
2013-07-02 17:34:00,85.8,77.0,30.02,SSE,166,4.0,11.0,75,0.00,,,0.00,137.0,meteohub,2013-07-02 21:34:00,
2013-07-02 17:39:00,85.8,77.4,30.03,South,191,3.0,10.0,76,0.00,,,0.00,135.0,meteohub,2013-07-02 21:39:00,
2013-07-02 17:44:00,85.5,77.4,30.03,ESE,119,3.0,8.0,77,0.00,,,0.00,135.0,meteohub,2013-07-02 21:44:00,
2013-07-02 17:49:00,85.3,77.2,30.03,ESE,121,7.0,10.0,77,0.00,,,0.00,125.0,meteohub,2013-07-02 21:49:00,
2013-07-02 17:54:00,85.3,77.2,30.04,SSE,152,4.0,10.0,77,0.00,,,0.00,113.0,meteohub,2013-07-02 21:54:00,
2013-07-02 17:59:00,85.1,75.9,30.04,SE,133,6.0,10.0,74,0.00,,,0.00,100.0,meteohub,2013-07-02 21:59:00,
2013-07-02 18:04:00,84.9,75.7,30.04,SE,140,4.0,9.0,74,0.00,,,0.00,86.0,meteohub,2013-07-02 22:04:00,
2013-07-02 18:09:00,84.7,75.9,30.04,SE,134,8.0,9.0,75,0.00,,,0.00,79.0,meteohub,2013-07-02 22:09:00,
2013-07-02 18:14:00,84.6,76.5,30.04,SSE,160,4.0,9.0,77,0.00,,,0.00,65.0,meteohub,2013-07-02 22:14:00,
2013-07-02 18:19:00,84.4,76.5,30.05,SE,136,7.0,9.0,77,0.00,,,0.00,60.0,meteohub,2013-07-02 22:19:00,
2013-07-02 18:24:00,84.4,75.9,30.05,SSE,163,4.0,9.0,76,0.00,,,0.00,54.0,meteohub,2013-07-02 22:24:00,
2013-07-02 18:29:00,84.4,76.8,30.05,SE,125,6.0,10.0,78,0.00,,,0.00,51.0,meteohub,2013-07-02 22:29:00,
2013-07-02 18:34:00,84.2,76.6,30.06,ESE,113,5.0,10.0,78,0.00,,,0.00,47.0,meteohub,2013-07-02 22:34:00,
2013-07-02 18:39:00,84.0,76.5,30.06,SE,127,3.0,10.0,78,0.00,,,0.00,44.0,meteohub,2013-07-02 22:39:00,
2013-07-02 18:45:00,84.0,76.5,30.07,SE,146,8.0,10.0,78,0.00,,,0.00,40.0,meteohub,2013-07-02 22:45:00,
2013-07-02 18:50:00,83.8,76.3,30.07,ESE,111,9.0,11.0,78,0.00,,,0.00,37.0,meteohub,2013-07-02 22:50:00,
2013-07-02 18:55:00,83.5,75.6,30.07,ESE,121,7.0,11.0,77,0.00,,,0.00,32.0,meteohub,2013-07-02 22:55:00,
2013-07-02 19:00:00,83.3,75.0,30.07,SSE,157,5.0,14.0,76,0.00,,,0.00,30.0,meteohub,2013-07-02 23:00:00,
2013-07-02 19:05:00,82.9,75.4,30.07,SSE,148,2.0,14.0,78,0.00,,,0.00,26.0,meteohub,2013-07-02 23:05:00,
2013-07-02 19:10:00,82.9,75.7,30.07,South,174,3.0,13.0,79,0.00,,,0.00,25.0,meteohub,2013-07-02 23:10:00,
2013-07-02 19:15:00,82.8,75.9,30.07,SSE,163,8.0,13.0,80,0.00,,,0.00,23.0,meteohub,2013-07-02 23:15:00,
2013-07-02 19:20:00,82.4,75.6,30.07,SSE,166,4.0,13.0,80,0.00,,,0.00,19.0,meteohub,2013-07-02 23:20:00,
2013-07-02 19:25:00,82.2,75.4,30.06,South,175,7.0,11.0,80,0.00,,,0.00,16.0,meteohub,2013-07-02 23:25:00,
2013-07-02 19:29:00,82.2,75.4,30.07,SSW,197,5.0,11.0,80,0.00,,,0.00,12.0,meteohub,2013-07-02 23:29:00,
2013-07-02 19:34:00,82.4,75.2,30.07,South,174,4.0,9.0,79,0.00,,,0.00,11.0,meteohub,2013-07-02 23:34:00,
2013-07-02 19:39:00,82.4,75.2,30.07,South,185,4.0,9.0,79,0.00,,,0.00,9.0,meteohub,2013-07-02 23:39:00,
2013-07-02 19:44:00,82.6,75.0,30.07,South,188,1.0,8.0,78,0.00,,,0.00,7.0,meteohub,2013-07-02 23:44:00,
2013-07-02 19:49:00,82.4,74.8,30.07,SSW,200,3.0,7.0,78,0.00,,,0.00,5.0,meteohub,2013-07-02 23:49:00,
2013-07-02 19:54:00,82.4,74.5,30.07,SSW,200,3.0,7.0,77,0.00,,,0.00,0.0,meteohub,2013-07-02 23:54:00,
2013-07-02 19:59:00,82.2,74.3,30.08,SSW,200,0.0,5.0,77,0.00,,,0.00,0.0,meteohub,2013-07-02 23:59:00,
2013-07-02 20:01:00,82.2,74.7,30.08,SSW,200,3.0,5.0,78,0.00,,,0.00,0.0,meteohub,2013-07-03 00:01:00,
2013-07-02 20:06:00,82.2,74.7,30.08,SW,215,2.0,3.0,78,0.00,,,0.00,0.0,meteohub,2013-07-03 00:06:00,
2013-07-02 20:11:00,82.0,74.5,30.08,SW,219,1.0,3.0,78,0.00,,,0.00,0.0,meteohub,2013-07-03 00:11:00,
2013-07-02 20:16:00,82.0,74.8,30.08,WSW,237,3.0,3.0,79,0.00,,,0.00,0.0,meteohub,2013-07-03 00:16:00,
2013-07-02 20:21:00,81.9,75.0,30.08,WSW,237,8.0,8.0,80,0.00,,,0.00,0.0,meteohub,2013-07-03 00:21:00,
2013-07-02 20:24:00,81.7,75.2,30.09,WSW,238,4.0,6.0,81,0.00,,,0.00,0.0,meteohub,2013-07-03 00:24:00,
2013-07-02 20:28:00,81.7,75.6,30.09,WSW,248,9.0,9.0,82,0.00,,,0.00,0.0,meteohub,2013-07-03 00:28:00,
2013-07-02 20:33:00,81.0,75.7,30.09,West,259,9.0,9.0,84,0.00,,,0.00,0.0,meteohub,2013-07-03 00:33:00,
2013-07-02 20:38:00,80.1,74.8,30.09,NNE,18,3.0,12.0,84,0.00,,,0.00,0.0,meteohub,2013-07-03 00:38:00,
2013-07-02 20:43:00,79.3,74.8,30.09,WNW,296,1.0,12.0,86,0.00,,,0.00,0.0,meteohub,2013-07-03 00:43:00,
2013-07-02 20:48:00,79.2,75.0,30.09,WNW,300,1.0,12.0,87,0.00,,,0.00,0.0,meteohub,2013-07-03 00:48:00,
2013-07-02 20:53:00,79.0,75.2,30.09,WNW,301,0.0,12.0,88,0.00,,,0.00,0.0,meteohub,2013-07-03 00:53:00,
2013-07-02 20:58:00,78.8,75.0,30.09,NW,305,0.0,10.0,88,0.00,,,0.00,0.0,meteohub,2013-07-03 00:58:00,
2013-07-02 21:00:00,78.6,74.8,30.10,NW,304,1.0,10.0,88,0.00,,,0.00,0.0,meteohub,2013-07-03 01:00:00,
2013-07-02 21:03:00,78.6,74.8,30.10,NW,321,0.0,5.0,88,0.00,,,0.00,0.0,meteohub,2013-07-03 01:03:00,
2013-07-02 21:08:00,78.4,74.7,30.10,NW,321,0.0,4.0,88,0.00,,,0.00,0.0,meteohub,2013-07-03 01:08:00,
2013-07-02 21:09:00,78.4,74.7,30.10,NW,321,0.0,4.0,88,0.00,,,0.00,0.0,meteohub,2013-07-03 01:09:00,
2013-07-02 21:14:00,78.4,74.8,30.10,NW,321,0.0,4.0,89,0.00,,,0.00,0.0,meteohub,2013-07-03 01:14:00,
2013-07-02 21:19:00,78.4,74.8,30.10,NW,321,0.0,4.0,89,0.00,,,0.00,0.0,meteohub,2013-07-03 01:19:00,
2013-07-02 21:24:00,78.4,74.8,30.10,NW,321,0.0,3.0,89,0.00,,,0.00,0.0,meteohub,2013-07-03 01:24:00,
2013-07-02 21:26:00,78.3,74.7,30.10,NW,321,1.0,3.0,89,0.00,,,0.00,0.0,meteohub,2013-07-03 01:26:00,
2013-07-02 21:31:00,78.3,75.0,30.10,NW,321,1.0,2.0,90,0.00,,,0.00,0.0,meteohub,2013-07-03 01:31:00,
2013-07-02 21:36:00,78.3,75.0,30.10,NW,319,1.0,3.0,90,0.00,,,0.00,0.0,meteohub,2013-07-03 01:36:00,
2013-07-02 21:41:00,78.3,75.0,30.10,NW,320,1.0,3.0,90,0.00,,,0.00,0.0,meteohub,2013-07-03 01:41:00,
2013-07-02 21:46:00,78.3,75.0,30.10,NW,320,0.0,3.0,90,0.00,,,0.00,0.0,meteohub,2013-07-03 01:46:00,
2013-07-02 21:50:00,78.3,75.4,30.11,NW,320,0.0,3.0,91,0.00,,,0.00,0.0,meteohub,2013-07-03 01:50:00,
2013-07-02 21:55:00,78.1,75.2,30.11,NW,320,0.0,2.0,91,0.00,,,0.00,0.0,meteohub,2013-07-03 01:55:00,
2013-07-02 22:01:00,78.1,75.2,30.11,NW,320,0.0,2.0,91,0.00,,,0.00,0.0,meteohub,2013-07-03 02:01:00,
2013-07-02 22:06:00,78.1,75.2,30.11,NW,320,0.0,0.0,91,0.00,,,0.00,0.0,meteohub,2013-07-03 02:06:00,
2013-07-02 22:11:00,78.1,75.2,30.11,NW,320,0.0,0.0,91,0.00,,,0.00,0.0,meteohub,2013-07-03 02:11:00,
2013-07-02 22:17:00,77.9,75.0,30.11,NW,320,0.0,0.0,91,0.00,,,0.00,0.0,meteohub,2013-07-03 02:17:00,
2013-07-02 22:22:00,78.1,75.6,30.11,NW,320,0.0,0.0,92,0.00,,,0.00,0.0,meteohub,2013-07-03 02:22:00,
2013-07-02 22:30:00,78.1,75.6,30.11,NW,320,0.0,0.0,92,0.00,,,0.00,0.0,meteohub,2013-07-03 02:30:00,
2013-07-02 22:34:00,77.9,75.4,30.11,NW,320,0.0,0.0,92,0.00,,,0.00,0.0,meteohub,2013-07-03 02:34:00,
2013-07-02 22:40:00,77.9,75.4,30.12,NW,320,0.0,0.0,92,0.00,,,0.00,0.0,meteohub,2013-07-03 02:40:00,
2013-07-02 22:47:00,77.7,75.6,30.11,NW,320,0.0,0.0,93,0.00,,,0.00,0.0,meteohub,2013-07-03 02:47:00,
2013-07-02 22:52:00,77.7,75.6,30.11,NW,320,0.0,0.0,93,0.00,,,0.00,0.0,meteohub,2013-07-03 02:52:00,
2013-07-02 22:57:00,77.7,75.6,30.11,NW,320,0.0,0.0,93,0.00,,,0.00,0.0,meteohub,2013-07-03 02:57:00,
2013-07-02 23:02:00,77.7,75.6,30.11,NW,320,0.0,0.0,93,0.00,,,0.00,0.0,meteohub,2013-07-03 03:02:00,
2013-07-02 23:12:00,77.5,75.4,30.10,NW,320,0.0,0.0,93,0.00,,,0.00,0.0,meteohub,2013-07-03 03:12:00,
2013-07-02 23:20:00,77.7,75.9,30.11,NW,320,0.0,0.0,94,0.00,,,0.00,0.0,meteohub,2013-07-03 03:20:00,
2013-07-02 23:25:00,77.5,75.7,30.11,NW,320,0.0,0.0,94,0.00,,,0.00,0.0,meteohub,2013-07-03 03:25:00,
2013-07-02 23:32:00,77.4,75.6,30.11,NW,320,0.0,0.0,94,0.00,,,0.00,0.0,meteohub,2013-07-03 03:32:00,
2013-07-02 23:37:00,77.5,75.7,30.11,NW,320,0.0,0.0,94,0.00,,,0.00,0.0,meteohub,2013-07-03 03:37:00,
2013-07-02 23:42:00,77.4,75.6,30.11,NW,320,0.0,0.0,94,0.00,,,0.00,0.0,meteohub,2013-07-03 03:42:00,
2013-07-02 23:47:00,77.4,75.6,30.11,NW,320,0.0,0.0,94,0.00,,,0.00,0.0,meteohub,2013-07-03 03:47:00,
2013-07-02 23:50:00,77.2,75.4,30.11,NW,320,0.0,0.0,94,0.00,,,0.00,0.0,meteohub,2013-07-03 03:50:00,
2013-07-02 23:54:00,77.2,75.4,30.11,NW,320,0.0,0.0,94,0.00,,,0.00,0.0,meteohub,2013-07-03 03:54:00,